SCP
0 0 0 0 0 0 0 0 0 0 0 0 0 0 0 0 0 0 0 0 0 0 0 0 0 0 0 0 0 0 0 0
0 0 0 0 0 0 0 0 0 0 0 0 0 0 0 0 0 0 0 0 0 0 0 0 0 0 0 0 0 0 0 0
0 0 0 0 0 0 0 0 0 0 0 0 0 0 0 0 0 0 0 0 0 0 0 0 0 0 0 0 0 0 0 0
0 0 0 0 0 0 0 0 0 0 0 0 0 0 0 0 0 0 0 0 0 0 0 0 -0 0 0 0 0 0 0 0
0 0 0 0 0 0 0 0 0 0 0 0 0 0 0 0 0 0 0 0 0 0 0 0 0 0 0 0 0 0 0 0
0 0 0 0 0 0 0 0 0 0 0 0 0 0 0 0 0 0 0 0 0 0 0 0 0 0 0 0 0 0 0 0
0 0 0 0 0 0 0 0 0 0 0 0 0 0 0 0 0 0 0 0 0 0 0 0 0 0 0 0 0 0 0 0
0 0 0 0 0 0 0 0 0 0 0 0 0 0 0 0 0 0 0 0 0 0 0 0 0 0 0 0 0 0 0 0
0 0 0 0 0 0 0 0 0 0 0 -0 -0 0 0 0 0 0 0 0 0 0 0 0 0 0 0 0 0 0 0 0
0 0 0 0 0 0 0 0 0 0 0 -0 -0 -0 0 0 0 0 0 0 0 0 0 0 0 0 0 0 0 0 0 0
0 0 0 0 0 0 0 0 0 0 0 0 0 0 0 0 0 0 0 0 0 0 0 0 0 0 0 0 0 0 0 0
0 0 0 0 0 -0 -0 -0 0 0 0 0 0 0 0 0 0 0 0 0 0 0 0 0 0 0 0 0 0 0 0 0
-0 -0 -0 -0 -0 -0 -0 0 0 0 0 0 0 0 0 0 0 0 0 0 0 0 0 0 0 0 0 0 0 0 0 0
-0 -0 -0 -0 -0 -0 0 0 0 0 0 0 0 0 0 0 0 0 0 0 0 0 0 0 0 0 0 0 0 0 0 0
-0 -0 -0 -0 0 0 0 0 0 0 0 0 0 0 0 0 0 0 0 0 0 0 0 0 0 0 0 0 0 0 0 0
-0 0 0 0 0 0 0 0 0 0 0 0 0 0 0 0 0 0 0 0 0 0 0 0 0 0 0 0 0 0 0 0
0 0 0 0 0 0 0 0 0 0 0 0 0 0 0 0 0 0 0 0 0 0 0 0 0 0 0 0 0 0 0 0
0 0 0 0 0 0 0 0 0 0 0 0 0 0 0 0 0 0 0 0 0 0 0 0 0 0 0 0 0 0 0 0
0 0 0 0 0 0 0 0 0 0 0 0 0 0 0 0 0 0 0 0 0 0 0 0 0 0 0 0 0 0 0 0
0 0 0 0 0 0 0 0 0 0 0 0 0 0 0 0 0 0 0 0 -0 0 0 0 0 0 0 0 0 0 0 0
Wind_Speed_500mb
75 81 82 87 86 89 91 97 87 87 89 87 84 83 79 80 78 65 71 60 56 52 40 23 19 19 22 33 33 29 28 26
64 67 76 82 79 84 87 91 90 95 91 89 86 85 82 83 78 70 66 61 51 43 27 27 24 28 36 38 36 32 31 30
70 77 79 77 77 84 85 90 94 93 87 89 87 85 85 75 75 67 61 51 41 36 23 25 33 39 39 38 36 36 35 35
69 70 69 68 70 75 85 84 81 78 75 80 77 77 78 67 65 47 45 43 23 20 26 37 41 37 37 40 41 39 40 41
58 60 61 65 66 66 63 60 56 60 64 59 45 38 38 44 52 45 30 18 25 30 38 38 37 36 40 42 42 44 45 46
52 48 41 44 38 34 28 25 27 33 40 42 48 53 57 46 34 27 24 32 37 34 34 34 34 36 40 42 45 48 49 53
54 52 50 51 48 47 45 48 45 60 64 64 58 43 30 28 31 30 27 26 26 29 27 31 34 36 41 46 50 52 54 57
59 57 53 62 63 67 70 71 63 59 52 46 37 28 19 18 21 22 22 22 23 27 31 34 37 39 43 48 53 55 58 60
67 67 65 71 79 70 63 62 55 47 37 29 14 8 8 11 18 22 20 22 25 28 33 38 41 44 47 52 57 61 62 65
74 67 66 64 64 62 52 42 31 26 15 4 4 2 3 11 18 20 20 25 31 36 40 42 45 47 49 54 60 66 68 67
70 65 58 52 48 43 36 26 16 8 4 1 2 4 8 11 15 22 29 31 35 40 42 43 45 46 51 55 63 69 73 72
58 53 49 38 28 28 21 22 21 18 13 11 10 9 8 12 17 23 29 33 36 40 42 44 47 47 52 56 64 69 74 77
53 51 46 40 33 35 34 34 27 23 19 16 14 13 13 16 20 25 29 33 37 42 43 41 42 46 48 51 56 61 70 76
61 58 55 47 42 38 41 32 27 21 21 20 20 21 21 22 24 26 30 33 34 37 40 37 37 42 46 48 52 56 62 68
56 59 58 50 45 44 36 32 27 25 23 22 21 22 22 24 25 28 30 33 39 44 48 51 50 54 59 65 70 75 78 81
54 53 52 44 42 40 38 35 33 31 31 32 32 31 31 32 34 36 39 44 49 53 57 64 68 66 68 72 77 78 79 83
52 50 50 46 44 43 42 40 37 36 39 41 41 42 43 43 42 43 45 49 51 53 58 63 64 67 71 73 77 78 77 78
49 47 45 43 43 46 45 43 40 41 42 43 44 47 51 53 55 57 51 50 52 56 60 63 70 74 76 76 72 72 71 71
43 44 43 41 44 46 44 43 43 44 44 48 51 51 51 52 53 57 62 65 63 58 65 68 71 73 72 73 79 78 71 69
39 43 43 44 48 47 46 46 46 47 48 48 47 49 51 54 57 61 64 68 72 76 75 75 76 76 77 77 77 78 77 75
Wind_Direction_500mb
195 196 202 206 207 208 209 213 214 215 217 216 220 220 222 227 233 229 221 210 201 194 188 203 243 235 216 225 234 239 247 256
189 189 199 201 204 207 209 213 216 219 218 217 220 221 223 222 228 220 213 198 189 182 207 237 217 218 228 231 237 244 252 259
183 191 196 198 203 206 208 212 216 218 218 219 221 222 224 214 225 208 190 189 187 203 202 218 231 235 229 237 246 252 258 264
180 187 189 195 200 204 207 209 212 215 213 214 211 213 213 209 194 184 167 179 185 180 197 230 238 233 237 244 249 257 263 267
170 173 181 185 188 190 188 194 201 205 197 200 197 189 170 159 149 153 169 171 199 213 238 236 236 240 245 251 259 263 266 270
150 145 150 148 148 157 150 160 177 167 161 150 146 145 140 151 144 163 179 205 231 233 235 239 247 252 259 264 266 268 272 273
120 123 126 125 123 113 126 135 130 127 125 127 126 128 135 152 173 191 209 212 232 243 252 259 263 266 269 272 273 274 276 278
111 113 118 110 109 109 111 110 118 116 113 116 133 146 160 180 191 192 203 225 242 254 261 266 271 272 274 278 279 279 279 280
106 107 112 115 117 121 123 125 127 131 137 135 131 117 159 188 195 205 226 246 260 271 276 274 277 280 280 278 279 282 285 284
102 105 109 111 112 117 121 120 120 120 122 102 41 53 216 225 213 229 256 277 281 285 285 283 281 284 286 286 286 286 287 289
104 104 105 107 113 117 114 111 111 100 85 135 212 223 227 241 257 270 279 285 293 297 297 294 293 294 292 291 291 291 292 289
107 105 102 102 109 104 100 94 75 65 57 51 43 24 345 320 310 306 301 303 304 301 301 302 303 298 293 290 288 290 293 293
99 96 92 89 87 84 80 73 68 62 53 47 36 19 357 340 328 317 314 311 309 306 304 303 298 296 293 292 291 291 290 293
88 88 84 80 77 76 68 60 52 44 37 24 13 1 350 342 333 326 322 320 318 316 316 318 315 313 312 308 306 304 303 304
82 79 73 67 63 61 57 49 37 30 26 23 15 12 8 8 3 356 352 346 340 334 329 326 325 323 320 318 316 312 310 308
67 65 63 57 56 55 51 46 41 38 37 33 28 23 17 11 5 357 354 349 344 339 333 328 322 318 315 313 309 306 304 302
65 63 60 54 52 51 47 42 36 31 27 22 15 8 1 355 353 352 342 336 331 326 324 320 318 317 316 313 309 307 307 304
62 59 56 52 48 45 38 32 25 23 18 12 4 359 354 350 346 337 334 339 335 333 330 326 323 322 319 318 316 313 311 306
63 61 57 53 48 43 35 28 22 19 13 9 6 3 359 356 352 349 347 343 338 337 337 333 329 328 329 328 324 322 321 318
60 57 51 46 42 35 27 21 17 15 14 12 9 6 3 1 358 356 353 351 349 346 343 338 334 334 333 330 329 328 326 324
Wind_Speed_850mb
75 81 82 87 86 89 91 97 87 87 89 87 84 83 79 80 78 65 71 60 56 52 40 23 19 19 22 33 33 29 28 26
64 67 76 82 79 84 87 91 90 95 91 89 86 85 82 83 78 70 66 61 51 43 27 27 24 28 36 38 36 32 31 30
70 77 79 77 77 84 85 90 94 93 87 89 87 85 85 75 75 67 61 51 41 36 23 25 33 39 39 38 36 36 35 35
69 70 69 68 70 75 85 84 81 78 75 80 77 77 78 67 65 47 45 43 23 20 26 37 41 37 37 40 41 39 40 41
58 60 61 65 66 66 63 60 56 60 64 59 45 38 38 44 52 45 30 18 25 30 38 38 37 36 40 42 42 44 45 46
52 48 41 44 38 34 28 25 27 33 40 42 48 53 57 46 34 27 24 32 37 34 34 34 34 36 40 42 45 48 49 53
54 52 50 51 48 47 45 48 45 60 64 64 58 43 30 28 31 30 27 26 26 29 27 31 34 36 41 46 50 52 54 57
59 57 53 62 63 67 70 71 63 59 52 46 37 28 19 18 21 22 22 22 23 27 31 34 37 39 43 48 53 55 58 60
67 67 65 71 79 70 63 62 55 47 37 29 14 8 8 11 18 22 20 22 25 28 33 38 41 44 47 52 57 61 62 65
74 67 66 64 64 62 52 42 31 26 15 4 4 2 3 11 18 20 20 25 31 36 40 42 45 47 49 54 60 66 68 67
70 65 58 52 48 43 36 26 16 8 4 1 2 4 8 11 15 22 29 31 35 40 42 43 45 46 51 55 63 69 73 72
58 53 49 38 28 28 21 22 21 18 13 11 10 9 8 12 17 23 29 33 36 40 42 44 47 47 52 56 64 69 74 77
53 51 46 40 33 35 34 34 27 23 19 16 14 13 13 16 20 25 29 33 37 42 43 41 42 46 48 51 56 61 70 76
61 58 55 47 42 38 41 32 27 21 21 20 20 21 21 22 24 26 30 33 34 37 40 37 37 42 46 48 52 56 62 68
56 59 58 50 45 44 36 32 27 25 23 22 21 22 22 24 25 28 30 33 39 44 48 51 50 54 59 65 70 75 78 81
54 53 52 44 42 40 38 35 33 31 31 32 32 31 31 32 34 36 39 44 49 53 57 64 68 66 68 72 77 78 79 83
52 50 50 46 44 43 42 40 37 36 39 41 41 42 43 43 42 43 45 49 51 53 58 63 64 67 71 73 77 78 77 78
49 47 45 43 43 46 45 43 40 41 42 43 44 47 51 53 55 57 51 50 52 56 60 63 70 74 76 76 72 72 71 71
43 44 43 41 44 46 44 43 43 44 44 48 51 51 51 52 53 57 62 65 63 58 65 68 71 73 72 73 79 78 71 69
39 43 43 44 48 47 46 46 46 47 48 48 47 49 51 54 57 61 64 68 72 76 75 75 76 76 77 77 77 78 77 75
Wind_Direction_850mb
195 196 202 206 207 208 209 213 214 215 217 216 220 220 222 227 233 229 221 210 201 194 188 203 243 235 216 225 234 239 247 256
189 189 199 201 204 207 209 213 216 219 218 217 220 221 223 222 228 220 213 198 189 182 207 237 217 218 228 231 237 244 252 259
183 191 196 198 203 206 208 212 216 218 218 219 221 222 224 214 225 208 190 189 187 203 202 218 231 235 229 237 246 252 258 264
180 187 189 195 200 204 207 209 212 215 213 214 211 213 213 209 194 184 167 179 185 180 197 230 238 233 237 244 249 257 263 267
170 173 181 185 188 190 188 194 201 205 197 200 197 189 170 159 149 153 169 171 199 213 238 236 236 240 245 251 259 263 266 270
150 145 150 148 148 157 150 160 177 167 161 150 146 145 140 151 144 163 179 205 231 233 235 239 247 252 259 264 266 268 272 273
120 123 126 125 123 113 126 135 130 127 125 127 126 128 135 152 173 191 209 212 232 243 252 259 263 266 269 272 273 274 276 278
111 113 118 110 109 109 111 110 118 116 113 116 133 146 160 180 191 192 203 225 242 254 261 266 271 272 274 278 279 279 279 280
106 107 112 115 117 121 123 125 127 131 137 135 131 117 159 188 195 205 226 246 260 271 276 274 277 280 280 278 279 282 285 284
102 105 109 111 112 117 121 120 120 120 122 102 41 53 216 225 213 229 256 277 281 285 285 283 281 284 286 286 286 286 287 289
104 104 105 107 113 117 114 111 111 100 85 135 212 223 227 241 257 270 279 285 293 297 297 294 293 294 292 291 291 291 292 289
107 105 102 102 109 104 100 94 75 65 57 51 43 24 345 320 310 306 301 303 304 301 301 302 303 298 293 290 288 290 293 293
99 96 92 89 87 84 80 73 68 62 53 47 36 19 357 340 328 317 314 311 309 306 304 303 298 296 293 292 291 291 290 293
88 88 84 80 77 76 68 60 52 44 37 24 13 1 350 342 333 326 322 320 318 316 316 318 315 313 312 308 306 304 303 304
82 79 73 67 63 61 57 49 37 30 26 23 15 12 8 8 3 356 352 346 340 334 329 326 325 323 320 318 316 312 310 308
67 65 63 57 56 55 51 46 41 38 37 33 28 23 17 11 5 357 354 349 344 339 333 328 322 318 315 313 309 306 304 302
65 63 60 54 52 51 47 42 36 31 27 22 15 8 1 355 353 352 342 336 331 326 324 320 318 317 316 313 309 307 307 304
62 59 56 52 48 45 38 32 25 23 18 12 4 359 354 350 346 337 334 339 335 333 330 326 323 322 319 318 316 313 311 306
63 61 57 53 48 43 35 28 22 19 13 9 6 3 359 356 352 349 347 343 338 337 337 333 329 328 329 328 324 322 321 318
60 57 51 46 42 35 27 21 17 15 14 12 9 6 3 1 358 356 353 351 349 346 343 338 334 334 333 330 329 328 326 324